[[{"header":{"parameterUnit":"m.s-1","parameterCategory":1,"la1":30.2991,"la2":30.254,"lo1":-89.0895,"lo2":-89.0444,"dy":0.0017,"dx":0.0017,"nx":28,"ny":28,"refTime":"2024-05-01T21:00:00:Z","depth":0,"parameterNumber":2,"parameterNumberName":"U-component_of_WINDS"},"data":[0,0,0,0,0,0,0,0,0,0,0,0,0,0,0,0,0,0,0,0,0,0,0,0,0,0,0,0,0,0,0,0,0,0,0,0,0,0,0,0,0,0,0,0,0,0,0,0,0,0,0,0,0,0,0,0,0,0,-1.7743,-1.7743,0,-1.7772,-1.7773,-1.7773,-1.7744,-1.7743,-1.7742,-1.774,-1.7771,-1.7773,-1.7775,0,0,0,0,0,0,0,0,0,0,0,0,0,-1.766,-1.7662,-1.7742,-1.7743,-1.7743,-1.7772,-1.7773,-1.7773,-1.7744,-1.7743,-1.7741,-1.774,-1.7771,-1.7773,-1.7775,0,0,0,0,0,0,0,0,0,0,0,0,0,-1.7694,-1.7663,-1.7742,-1.7732,-1.7732,-1.7772,-1.7773,-1.7773,-1.7744,-1.7743,-1.7741,-1.7739,-1.777,-1.7773,-1.7775,-1.7828,0,0,-1.7784,-1.7785,0,0,0,0,0,0,0,0,-1.7692,-1.7697,-1.7733,-1.7733,-1.7732,-1.7753,-1.7755,-1.7792,-1.7745,-1.7739,-1.774,-1.7738,-1.7766,-1.7769,-1.7779,-1.7829,-1.783,-1.7784,-1.7786,-1.7787,-1.7788,0,0,0,0,0,0,0,-1.769,-1.7695,-1.7754,-1.7734,-1.7733,-1.7726,-1.7729,-1.7762,-1.7762,-1.774,-1.7738,-1.7742,-1.7766,-1.7776,-1.7779,-1.7831,-1.7784,-1.7787,-1.7789,-1.779,-1.7926,-1.7928,0,0,0,0,0,0,-1.7688,-1.7694,-1.7753,-1.7755,-1.7707,-1.7729,-1.7732,-1.7748,-1.7762,-1.7762,-1.7743,-1.774,-1.7772,-1.7776,-1.778,-1.7842,-1.7787,-1.779,-1.7792,-1.7924,-1.7926,-1.7928,0,0,0,0,0,0,-1.7687,-1.7694,-1.7752,-1.7724,-1.7731,-1.7732,-1.775,-1.7749,-1.776,-1.7764,-1.7764,-1.7754,-1.7771,-1.7776,-1.7816,-1.7843,-1.7791,-1.7794,-1.7922,-1.7925,-1.7927,-1.7967,0,0,0,0,0,0,-1.7685,-1.7694,-1.7713,-1.7725,-1.7732,-1.7787,-1.7752,-1.7751,-1.7765,-1.7761,-1.7774,-1.7775,-1.777,-1.7812,-1.7819,-1.7846,-1.7796,-1.7919,-1.7923,-1.7926,-1.7963,-1.797,-1.7977,0,0,0,0,0,-1.7682,-1.7723,-1.7715,-1.7722,-1.7757,-1.7789,-1.7793,-1.7787,-1.7767,-1.7787,-1.779,-1.7774,-1.7839,-1.7816,-1.7824,-1.7852,-1.7917,-1.7922,-1.7926,-1.796,-1.7969,-1.7977,0,0,0,0,0,0,-1.7715,-1.7725,-1.7715,-1.7761,-1.7775,-1.7784,-1.7809,-1.7797,-1.7816,-1.7812,-1.7804,-1.7807,-1.7849,-1.7855,-1.7829,-1.7904,-1.7875,-1.7881,-1.7898,-1.7907,-1.7914,-1.7911,-1.7798,0,0,0,0,0,-1.7728,-1.7753,-1.776,-1.78,-1.7808,-1.7807,-1.7821,-1.7815,-1.7828,-1.7834,-1.784,-1.7853,-1.7877,-1.7892,-1.7914,-1.7964,-1.7966,-1.7987,-1.7994,-1.8,-1.8005,-1.8031,-1.8041,-1.7942,-1.7942,-1.7942,0,0,-1.7755,-1.7763,-1.7779,-1.7807,-1.7817,-1.7843,-1.7812,-1.7841,-1.786,-1.7838,-1.7876,-1.7881,-1.7896,-1.7941,-1.7961,-1.7947,-1.8033,-1.8005,-1.801,-1.8012,-1.8037,-1.8046,-1.8054,-1.7945,-1.7945,-1.7944,0,0,-1.7816,-1.7825,-1.786,-1.787,-1.7885,-1.7885,-1.7893,-1.7904,-1.7907,-1.7945,-1.7929,-1.7952,-1.7992,-1.8003,-1.8014,-1.8081,-1.8067,-1.8088,-1.8125,-1.8151,-1.8158,-1.8165,-1.8188,-1.8197,-1.8094,-1.8094,-1.8094,0,-1.7847,-1.7886,-1.7879,-1.7909,-1.7922,-1.7903,-1.7938,-1.7949,-1.797,-1.7979,-1.7963,-1.8014,-1.8022,-1.807,-1.8086,-1.8096,-1.8105,-1.8086,-1.8158,-1.8165,-1.8171,-1.8193,-1.8202,-1.8096,-1.8096,-1.8096,-1.8095,0,-1.7923,-1.795,-1.7977,-1.7997,-1.8013,-1.8046,-1.8044,-1.8061,-1.8054,-1.8055,-1.8094,-1.8104,-1.8127,-1.8138,-1.8132,-1.8185,-1.8176,-1.8159,-1.813,-1.8183,-1.8203,-1.8212,-1.81,-1.8099,-1.8098,-1.8097,0,0,-1.8006,-1.8023,-1.8033,-1.8042,-1.8057,-1.8078,-1.811,-1.8133,-1.8147,-1.8163,-1.8189,-1.8225,-1.8209,-1.8222,-1.8216,-1.824,-1.8291,-1.822,-1.822,-1.8232,-1.835,-1.8361,-1.8371,-1.8283,-1.8284,-1.8285,-1.8348,0,-1.8068,-1.8122,-1.8117,-1.8169,-1.8194,-1.8177,-1.8205,-1.8217,-1.822,-1.8241,-1.8244,-1.8269,-1.8247,-1.8255,-1.8277,-1.828,-1.8314,-1.8276,-1.8306,-1.8308,-1.8302,-1.8382,-1.8395,-1.8453,-1.8356,-1.8358,-1.8359,0,-1.8146,-1.8165,-1.8219,-1.8231,-1.8241,-1.8266,-1.8287,-1.8308,-1.8322,-1.8322,-1.8336,-1.8327,-1.8359,-1.833,-1.8374,-1.8348,-1.836,-1.8364,-1.8366,-1.8368,-1.8336,-1.8385,-1.8472,-1.8481,-1.8371,-1.837,-1.8369,0,-1.82,-1.8239,-1.8276,-1.8285,-1.83,-1.8318,-1.8325,-1.8337,-1.8351,-1.8369,-1.8378,-1.84,-1.8412,-1.8429,-1.8427,-1.8406,-1.8471,-1.8442,-1.8472,-1.8472,-1.8486,-1.8485,-1.8575,-1.8495,-1.8495,-1.8495,-1.8495,0,-1.8269,-1.8303,-1.8301,-1.8324,-1.8361,-1.8355,-1.8393,-1.8398,-1.8409,-1.8433,-1.842,-1.8442,-1.8437,-1.846,-1.8458,-1.8494,-1.85,-1.8501,-1.85,-1.8502,-1.8501,-1.8509,-1.8504,-1.8497,-1.8497,-1.8496,-1.8496,0,-1.8336,-1.8335,-1.8375,-1.8386,-1.8389,-1.8417,-1.8426,-1.8448,-1.8449,-1.8479,-1.8486,-1.8489,-1.8515,-1.8514,-1.8543,-1.8542,-1.8587,-1.8581,-1.8582,-1.858,-1.861,-1.8607,-1.8707,-1.872,-1.8633,-1.8634,-1.8634,0,-1.8379,-1.8405,-1.8418,-1.8433,-1.8441,-1.8466,-1.848,-1.8476,-1.8491,-1.8509,-1.8529,-1.8554,-1.8573,-1.8615,-1.862,-1.8642,-1.8637,-1.867,-1.864,-1.8641,-1.8636,-1.8634,-1.8637,-1.8676,-1.8677,-1.8678,-1.8678,0,-1.8456,-1.8455,-1.8476,-1.8497,-1.8515,-1.8532,-1.8547,-1.856,-1.8557,-1.8575,-1.8601,-1.8616,-1.8647,-1.8671,-1.8693,-1.87,-1.8689,-1.8688,-1.8696,-1.8697,-1.8696,-1.8697,-1.8597,-1.8685,-1.8685,-1.8684,-1.8684,-1.8683,-1.8512,-1.8534,-1.8547,-1.8571,-1.8582,-1.8596,-1.8617,-1.8622,-1.8643,-1.8667,-1.8664,-1.8693,-1.8707,-1.8734,-1.8744,-1.8767,-1.8755,-1.8766,-1.8769,-1.8772,-1.8775,-1.8694,-1.8771,-1.877,-1.877,-1.877,-1.877,0,-1.8588,-1.8595,-1.8618,-1.8639,-1.8658,-1.8646,-1.8663,-1.8679,-1.8705,-1.8719,-1.8738,-1.8768,-1.8792,-1.8799,-1.8822,-1.8839,-1.8834,-1.8845,-1.8843,-1.8845,-1.8785,-1.8775,-1.8849,-1.8849,-1.8849,-1.8848,-1.8848,-1.8848,-1.8629,-1.8666,-1.8666,-1.8708,-1.8715,-1.8744,-1.8754,-1.8767,-1.8778,-1.8812,-1.8832,-1.8836,-1.8847,-1.8871,-1.8892,-1.8894,-1.8903,-1.8915,-1.8915,-1.8857,-1.885,-1.8842,-1.8833,-1.8917,-1.8918,-1.8973,-1.8974,-1.8974]},{"header":{"parameterUnit":"m.s-1","parameterCategory":1,"la1":30.2991,"la2":30.254,"lo1":-89.0895,"lo2":-89.0444,"dy":0.0017,"dx":0.0017,"nx":28,"ny":28,"refTime":"2024-05-01T21:00:00:Z","depth":0,"parameterNumber":3,"parameterNumberName":"V-component_of_WINDS"},"data":[0,0,0,0,0,0,0,0,0,0,0,0,0,0,0,0,0,0,0,0,0,0,0,0,0,0,0,0,0,0,0,0,0,0,0,0,0,0,0,0,0,0,0,0,0,0,0,0,0,0,0,0,0,0,0,0,0,0,2.8701,2.8701,0,2.8671,2.8671,2.8671,2.863,2.8629,2.8628,2.8627,2.8596,2.8596,2.8595,0,0,0,0,0,0,0,0,0,0,0,0,0,2.8721,2.872,2.8701,2.8701,2.87,2.8672,2.8671,2.8671,2.863,2.8629,2.8628,2.8627,2.8596,2.8596,2.8595,0,0,0,0,0,0,0,0,0,0,0,0,0,2.8704,2.872,2.8701,2.8676,2.8674,2.8672,2.8671,2.8671,2.863,2.8629,2.8628,2.8627,2.8596,2.8596,2.8595,2.8615,0,0,2.8595,2.8594,0,0,0,0,0,0,0,0,2.8705,2.8703,2.868,2.8678,2.8675,2.8653,2.8666,2.8652,2.863,2.8646,2.8627,2.8626,2.8616,2.8614,2.861,2.8613,2.8612,2.8595,2.8594,2.8594,2.8594,0,0,0,0,0,0,0,2.8706,2.8704,2.8689,2.868,2.8677,2.8666,2.8663,2.8663,2.8637,2.8645,2.8642,2.8639,2.8614,2.8611,2.8609,2.8611,2.8595,2.8594,2.8594,2.8594,2.8629,2.863,0,0,0,0,0,0,2.8711,2.8705,2.869,2.8688,2.8688,2.8667,2.8663,2.8661,2.8637,2.8632,2.864,2.8637,2.8612,2.861,2.8608,2.8629,2.8594,2.8594,2.8594,2.8628,2.8629,2.863,0,0,0,0,0,0,2.8712,2.871,2.8691,2.8696,2.8693,2.8668,2.8666,2.8661,2.8658,2.8633,2.8628,2.8642,2.8611,2.8609,2.8614,2.8628,2.8594,2.8594,2.8626,2.8628,2.863,2.8672,0,0,0,0,0,0,2.8712,2.871,2.8718,2.8696,2.8693,2.8698,2.8667,2.8661,2.8658,2.8654,2.8634,2.8629,2.861,2.8614,2.8613,2.8627,2.8593,2.8625,2.8627,2.8629,2.8669,2.8674,2.8679,0,0,0,0,0,2.8713,2.873,2.8718,2.8717,2.8701,2.8699,2.8696,2.8674,2.8659,2.8666,2.865,2.863,2.8626,2.8615,2.8614,2.8627,2.8624,2.8627,2.8629,2.8666,2.8673,2.8679,0,0,0,0,0,0,2.8753,2.8727,2.8713,2.8724,2.8714,2.8692,2.87,2.8682,2.8676,2.8672,2.8645,2.864,2.8649,2.8638,2.8626,2.8645,2.8622,2.8624,2.8651,2.8657,2.8663,2.8665,2.8593,0,0,0,0,0,2.8763,2.8764,2.8741,2.8752,2.8748,2.8725,2.8723,2.8707,2.8695,2.869,2.8675,2.8664,2.866,2.8658,2.8653,2.8667,2.8662,2.8676,2.8681,2.8686,2.8688,2.8694,2.87,2.8638,2.8638,2.8638,0,0,2.8784,2.877,2.8772,2.876,2.875,2.8751,2.8721,2.8723,2.8723,2.869,2.8694,2.8683,2.8668,2.8678,2.8682,2.867,2.8704,2.8689,2.8692,2.8692,2.8698,2.8703,2.8709,2.864,2.864,2.8639,0,0,2.8822,2.8812,2.882,2.8811,2.8797,2.8782,2.8784,2.8764,2.8756,2.876,2.8735,2.8734,2.8729,2.872,2.8714,2.875,2.8731,2.875,2.8777,2.8783,2.8788,2.8793,2.8805,2.881,2.8752,2.8752,2.8752,0,2.885,2.885,2.8827,2.8831,2.8826,2.8797,2.8806,2.8798,2.8783,2.878,2.8768,2.876,2.8748,2.8756,2.8765,2.8761,2.8763,2.8751,2.879,2.8794,2.8797,2.8809,2.8814,2.8754,2.8754,2.8754,2.8754,0,2.8885,2.8885,2.8894,2.8881,2.8878,2.8884,2.8861,2.8861,2.8845,2.8831,2.8836,2.8821,2.8813,2.8813,2.8798,2.8819,2.8812,2.8795,2.8771,2.8806,2.8816,2.8821,2.8758,2.8757,2.8756,2.8756,0,0,2.8946,2.8921,2.8925,2.8918,2.8901,2.8901,2.8906,2.8899,2.8899,2.8889,2.8893,2.8889,2.8873,2.8867,2.8851,2.8857,2.8886,2.8839,2.8838,2.8848,2.8908,2.8921,2.8927,2.8874,2.8875,2.8875,2.8909,0,2.8981,2.8988,2.8968,2.898,2.8981,2.8953,2.8958,2.8947,2.8935,2.8933,2.8918,2.8916,2.8896,2.8892,2.8897,2.8882,2.8898,2.8879,2.8876,2.8877,2.8881,2.8932,2.8946,2.8979,2.8914,2.8914,2.8915,0,2.9022,2.9016,2.9028,2.9011,2.901,2.9014,2.9006,2.9005,2.8993,2.8983,2.8977,2.8958,2.8962,2.894,2.8944,2.8932,2.893,2.8922,2.8923,2.8921,2.8898,2.8932,2.8988,2.8993,2.8921,2.8921,2.892,0,2.9066,2.9061,2.9067,2.9063,2.9043,2.9046,2.9038,2.9025,2.9022,2.9015,2.9013,2.9006,2.9002,2.8997,2.8977,2.8963,2.8984,2.896,2.8976,2.8976,2.8981,2.8981,2.9037,2.898,2.898,2.898,2.898,0,2.9107,2.9115,2.9087,2.9091,2.91,2.9077,2.9086,2.9075,2.9064,2.9065,2.9041,2.9043,2.9016,2.9015,2.8999,2.9005,2.9003,2.8996,2.8991,2.8998,2.8999,2.8995,2.8992,2.8981,2.8981,2.898,2.898,0,2.9157,2.9138,2.9144,2.9124,2.912,2.9127,2.911,2.9113,2.91,2.9102,2.9101,2.9079,2.9076,2.9056,2.9048,2.9038,2.9049,2.9041,2.9054,2.9051,2.9067,2.9066,2.9124,2.913,2.9069,2.907,2.907,0,2.9184,2.919,2.9172,2.9171,2.9164,2.9163,2.9161,2.9138,2.9136,2.9123,2.9128,2.9123,2.9118,2.9116,2.9099,2.9093,2.9084,2.9104,2.9083,2.9089,2.9084,2.9084,2.9084,2.9109,2.911,2.911,2.9111,0,2.9234,2.9225,2.9222,2.9216,2.9213,2.9207,2.92,2.9201,2.9176,2.9175,2.9172,2.9169,2.9161,2.9157,2.9149,2.914,2.9121,2.9118,2.9121,2.9128,2.9135,2.9131,2.9066,2.9117,2.9116,2.9116,2.9115,2.9115,2.9273,2.9278,2.9266,2.9263,2.9255,2.9249,2.9251,2.9238,2.9235,2.9228,2.9215,2.9214,2.9202,2.9189,2.9182,2.9181,2.917,2.9174,2.9176,2.9177,2.918,2.9136,2.9179,2.9179,2.9179,2.9179,2.9178,0,2.9322,2.9313,2.9311,2.9302,2.93,2.9284,2.9275,2.9274,2.9274,2.9265,2.9261,2.9258,2.9254,2.9237,2.9231,2.9234,2.9225,2.9233,2.9232,2.9231,2.9191,2.9188,2.924,2.924,2.924,2.924,2.924,2.924,2.9347,2.9354,2.9343,2.9346,2.9336,2.9336,2.9332,2.9326,2.9319,2.9317,2.9314,2.9303,2.9291,2.9284,2.928,2.9275,2.9274,2.9284,2.9277,2.9239,2.9234,2.9228,2.9226,2.9284,2.9285,2.9317,2.9317,2.9318]}]]